{"data":{"norad_id":59549,"epoch":"2026-05-24T16:45:37.359648Z","epoch_age_seconds":97526,"freshness":"FRESH","line1":"1 59549U 24074R   26144.69834907  .00003403  00000+0  13318-3 0  9990","line2":"2 59549  43.0012 273.8608 0000949 278.0606  82.0138 15.27567651117645","mean_motion":15.27567651,"eccentricity":9.49e-5,"inclination_deg":43.0012,"raan_deg":273.8608,"arg_perigee_deg":278.0606,"mean_anomaly_deg":82.0138,"bstar":0.00013318,"rev_number":11764,"period_min":94.26751077488,"perigee_km":482.4349435676,"apogee_km":483.73720370698,"semimajor_km":6861.2230736373,"source":"CELESTRAK","updated_at":"2026-05-25T13:38:18.982203Z"}}